Weather History for Avoca, PA

Change the Weather History Date:

Thursday, February 28, 2013

  Actual Average Record
Temperature  
Mean Temperature 38 °F 32 °F  
Max Temperature 42 °F 40 °F 64 °F (1903)
Min Temperature 33 °F 23 °F -6 °F (1934)
Degree Days  
Heating Degree Days 27 33  
Month to date heating degree days 1007 1015  
Since 1 July heating degree days 4224 4606  
Cooling Degree Days 0 0  
Month to date cooling degree days 0 0  
Year to date cooling degree days 0 0  
Moisture  
Dew Point 32 °F    
Average Humidity 78    
Maximum Humidity 96    
Minimum Humidity 59    
Precipitation  
Precipitation 0.07 in 0.07 in 1.21 in (1958)
Month to date precipitation 1.31 2.03  
Year to date precipitation 3.33 4.40  
Sea Level Pressure  
Sea Level Pressure 29.60 in    
Wind  
Wind Speed 7 mph (SW)    
Max Wind Speed 14 mph    
Max Gust Speed 24 mph    
Visibility 7 miles    
Events Rain , Snow    
T = Trace of Precipitation, MM = Missing Value Source: NWS Daily Summary

Daily Weather History Graph

Daily Weather History Graph

Search for Another Location

Airport:

Trip Planner

Search our weather history database for the weather conditions in past years. The results will help you decide how hot, cold, wet, or windy it might be!

Date:

Astronomy

Feb. 28, 2013 Rise Set
Actual Time 6:38 AM EST 5:52 PM EST
Civil Twilight 6:10 AM EST 6:20 PM EST
Nautical Twilight 5:38 AM EST 6:52 PM EST
Astronomical Twilight 5:06 AM EST 7:24 PM EST
Moon 9:20 PM EST 7:44 AM EST
Length of Visible Light 12h 09m
Length of Day
11h 14m
Waning Gibbous, 91% of the Moon is Illuminated
Feb 28
Waning Gibbous
Mar 4
Last Quarter
Mar 11
New
Mar 19
First Quarter
Mar 27
Full

Hourly Weather History & Observations

Time (EST) Temp. Windchill Dew Point Humidity Pressure Visibility Wind Dir Wind Speed Gust Speed Precip Events Conditions
12:11 AM 39.2 °F 34.2 °F 35.6 °F 87% 29.59 in 10.0 mi SSW 6.9 mph - N/A   Overcast
12:23 AM 39.2 °F - 35.6 °F 87% 29.59 in 9.0 mi Calm Calm - N/A   Overcast
12:54 AM 37.4 °F 31.4 °F 33.8 °F 87% 29.58 in 9.0 mi SSW 8.1 mph - N/A   Overcast
1:54 AM 37.9 °F - 34.0 °F 86% 29.59 in 10.0 mi Calm Calm - 0.00 in Rain Light Rain
2:03 AM 37.4 °F 34.9 °F 33.8 °F 87% 29.58 in 8.0 mi SW 3.5 mph - 0.00 in Rain Light Rain
2:54 AM 37.0 °F 34.5 °F 35.1 °F 93% 29.58 in 5.0 mi SW 3.5 mph - 0.03 in Rain Light Rain
3:54 AM 37.0 °F 31.0 °F 34.0 °F 89% 29.58 in 6.0 mi SW 8.1 mph - 0.00 in Rain Light Rain
4:54 AM 36.0 °F 31.1 °F 34.0 °F 93% 29.59 in 6.0 mi SW 5.8 mph - 0.01 in Rain Light Rain
5:13 AM 35.6 °F 29.2 °F 33.8 °F 93% 29.58 in 6.0 mi SW 8.1 mph - 0.00 in Rain Light Rain
5:39 AM 35.6 °F 29.9 °F 33.8 °F 93% 29.58 in 8.0 mi SW 6.9 mph - 0.00 in   Overcast
5:54 AM 35.1 °F 29.3 °F 33.1 °F 92% 29.60 in 8.0 mi SSW 6.9 mph - 0.00 in   Overcast
6:54 AM 34.0 °F 28.8 °F 32.0 °F 92% 29.59 in 8.0 mi SW 5.8 mph - N/A   Mostly Cloudy
7:54 AM 36.0 °F 30.3 °F 32.0 °F 86% 29.60 in 9.0 mi SW 6.9 mph - N/A   Overcast
8:54 AM 37.9 °F 32.1 °F 32.0 °F 79% 29.61 in 10.0 mi SW 8.1 mph - N/A   Partly Cloudy
9:14 AM 39.2 °F 33.0 °F 32.0 °F 75% 29.59 in 10.0 mi SW 9.2 mph - N/A   Mostly Cloudy
9:54 AM 39.0 °F 34.8 °F 30.0 °F 70% 29.60 in 10.0 mi WSW 5.8 mph 16.1 mph N/A   Mostly Cloudy
10:54 AM 41.0 °F 34.3 °F 28.9 °F 62% 29.59 in 10.0 mi WSW 11.5 mph 17.3 mph N/A   Mostly Cloudy
11:25 AM 39.2 °F 32.5 °F 28.4 °F 65% 29.58 in 10.0 mi SW 10.4 mph - N/A   Overcast
11:54 AM 39.9 °F 32.5 °F 27.0 °F 60% 29.59 in 10.0 mi SW 12.7 mph - N/A   Overcast
12:54 PM 39.9 °F 32.9 °F 26.1 °F 58% 29.57 in 10.0 mi SW 11.5 mph 23.0 mph N/A   Overcast
1:54 PM 41.0 °F 35.8 °F 28.0 °F 60% 29.56 in 10.0 mi SW 8.1 mph - N/A   Overcast
2:54 PM 39.2 °F 32.5 °F 26.6 °F 61% 29.55 in 10.0 mi WSW 10.4 mph - N/A   Mostly Cloudy
3:30 PM 37.4 °F 30.3 °F 28.4 °F 70% 29.55 in 8.0 mi West 10.4 mph - 0.00 in Rain Light Rain
3:54 PM 37.0 °F 32.4 °F 30.0 °F 76% 29.57 in 10.0 mi North 5.8 mph - 0.00 in   Overcast
4:29 PM 35.6 °F 29.2 °F 30.2 °F 81% 29.57 in 7.0 mi WNW 8.1 mph - 0.00 in Snow Light Snow
4:54 PM 35.1 °F 28.6 °F 30.9 °F 85% 29.59 in 6.0 mi WNW 8.1 mph - 0.00 in Snow Light Snow
5:19 PM 33.8 °F 27.7 °F 32.0 °F 93% 29.58 in 3.0 mi WNW 6.9 mph - 0.01 in Snow Light Snow
5:27 PM 33.8 °F 27.0 °F 32.0 °F 93% 29.58 in 2.5 mi SSW 8.1 mph - 0.01 in Snow Light Snow
5:33 PM 33.8 °F 27.0 °F 32.0 °F 93% 29.58 in 5.0 mi SSW 8.1 mph - 0.01 in Snow Light Snow
5:54 PM 34.0 °F 27.2 °F 32.0 °F 92% 29.60 in 7.0 mi SSW 8.1 mph - 0.01 in   Overcast
6:54 PM 34.0 °F 29.8 °F 32.0 °F 92% 29.62 in 9.0 mi SSW 4.6 mph - 0.00 in   Overcast
7:34 PM 33.8 °F - 32.0 °F 93% 29.61 in 6.0 mi Calm Calm - 0.00 in   Overcast
7:42 PM 33.8 °F 29.6 °F 32.0 °F 93% 29.61 in 2.5 mi West 4.6 mph - 0.00 in Snow Light Snow
7:51 PM 33.8 °F 29.6 °F 30.2 °F 87% 29.61 in 1.5 mi West 4.6 mph - 0.01 in Snow Light Snow
7:54 PM 33.1 °F 28.7 °F 30.9 °F 92% 29.63 in 1.8 mi West 4.6 mph - 0.01 in Snow Light Snow
8:07 PM 33.8 °F 30.8 °F 32.0 °F 93% 29.61 in 2.0 mi SW 3.5 mph - 0.01 in Snow Light Snow
8:31 PM 33.8 °F 29.6 °F 32.0 °F 93% 29.62 in 2.0 mi SW 4.6 mph - 0.01 in Snow Light Snow
8:54 PM 33.1 °F 27.7 °F 32.0 °F 96% 29.64 in 3.0 mi SSW 5.8 mph - 0.01 in   Overcast
9:12 PM 33.8 °F 29.6 °F 32.0 °F 93% 29.62 in 4.0 mi SSW 4.6 mph - 0.00 in Snow Light Snow
9:30 PM 33.8 °F 29.6 °F 32.0 °F 93% 29.63 in 3.0 mi SW 4.6 mph - 0.00 in Snow Light Snow
9:54 PM 33.1 °F 28.7 °F 32.0 °F 96% 29.65 in 3.0 mi SW 4.6 mph - 0.00 in Snow Light Snow
10:15 PM 33.8 °F 29.6 °F 32.0 °F 93% 29.64 in 4.0 mi SSW 4.6 mph - 0.00 in Snow Light Snow
10:54 PM 34.0 °F 28.8 °F 30.9 °F 89% 29.65 in 9.0 mi West 5.8 mph - 0.00 in   Overcast
11:22 PM 33.8 °F 28.6 °F 30.2 °F 87% 29.64 in 9.0 mi WNW 5.8 mph - N/A   Overcast
11:50 PM 33.8 °F 28.6 °F 30.2 °F 87% 29.64 in 8.0 mi West 5.8 mph - N/A   Overcast
11:54 PM 34.0 °F 28.0 °F 30.9 °F 89% 29.65 in 8.0 mi West 6.9 mph - N/A   Overcast